Regional Weather Roundup
Issued by NWS Cleveland, OH

Home | Current Version | Previous Version | Text Only | Print | Product List | Glossary On
Versions: 1 2 3 4 5 6 7 8 9 10 11 12 13 14 15 16 17 18 19 20 21 22 23 24 25 26 27 28 29 30 31 32 33 34 35 36 37 38 39 40 41 42 43 44 45 46 47 48 49 50
000
ASUS41 KCLE 042110
RWRCLE
OHIO REGIONAL WEATHER ROUNDUP
NATIONAL WEATHER SERVICE CLEVELAND, OH
500 PM EDT SAT JUL 04 2015

NOTE: "FAIR" INDICATES FEW OR NO CLOUDS BELOW 12,000 FEET WITH NO
SIGNIFICANT WEATHER AND/OR OBSTRUCTIONS TO VISIBILITY.

OHZ001>008-015>018-024>027-034-035-043-044-042200-
   NORTHWEST OHIO

CITY           SKY/WX    TMP DP  RH WIND       PRES   REMARKS
DEFIANCE       MOSUNNY   80  54  40 N5        30.00F
FINDLAY        MOSUNNY   79  56  45 W7        30.00S
TOLEDO EXPRESS SUNNY     80  50  34 VRB3      30.00F
TOLEDO EXEC    SUNNY     78  50  37 W5        30.01F
LIMA           SUNNY     77  57  50 CALM      30.01F
$$

OHZ009>014-019>023-028>033-038-089-042200-
   NORTHEAST OHIO

CITY           SKY/WX    TMP DP  RH WIND       PRES   REMARKS
CLE-HOPKINS    SUNNY     74  51  44 N13       30.04R
CLE-LAKEFRONT  SUNNY     73  53  49 NW7       30.01S
CUY CO. ARPT   SUNNY     75  57  53 NW12      30.03R
LORAIN-ELYRIA  SUNNY     74  51  44 N9        30.03R
ASHTABULA      SUNNY     73  51  46 VRB5      30.02S
AKRON-CANTON   MOSUNNY   80  52  37 VRB5      30.00S
WOOSTER        SUNNY     77  54  44 VRB6      30.02R
MANSFIELD      SUNNY     77  55  46 N5        30.02S
YOUNGSTOWN     MOSUNNY   78  54  43 N10       30.00S
$$

OHZ042-051>053-060>062-070>072-077>081-042200-
  SOUTHWEST OHIO

CITY           SKY/WX    TMP DP  RH WIND       PRES   REMARKS
CINC-COVINGTON PTSUNNY   79  62  56 N6        30.00F
CINC-LUNKEN    MOSUNNY   82  62  50 VRB5      29.99F
HAMILTON       MOSUNNY   81  63  54 NW3       30.01F
DAYTON         MOSUNNY   79  59  50 CALM      30.03S
WRIGHT-PAT AFB SUNNY     78  55  45 VRB1      30.01F
DAYTON GENERAL SUNNY     79  55  43 W6        30.01S
WILMINGTON     SUNNY     79  55  43 N7        30.01F
$$

OHZ036-037-039>041-045>050-054>059-063>069-073>076-082>088-042200-
  CENTRAL AND SOUTHEAST OHIO

CITY           SKY/WX    TMP DP  RH WIND       PRES   REMARKS
COLUMBUS       MOSUNNY   79  55  43 N6        30.00R
OSU AIRPORT    SUNNY     77  54  44 VRB6      30.01S
BOLTON FIELD   SUNNY     77  57  50 CALM      30.02S
RICKENBACK AFB SUNNY     79  53  41 NW8       30.01R
NEWARK         MOSUNNY   81  59  47 W6        30.00R
MARION         SUNNY     77  54  44 NE5       30.02S
LANCASTER      MOSUNNY   80  58  46 N7        30.01S
ZANESVILLE     NOT AVBL
NEW PHILLY     SUNNY     78  57  48 CALM      30.00R
$$


USA.gov is the U.S. government's official web portal to all federal, state and local government web resources and services.